When you browse on this site, cookies collect data to enhance your experience and personalize the content and advertising you see.
Visit our Privacy Policy to learn more. By continuing to use the site, you agree to this use of cookies and data.
  • In Germany
  • List of Countries
  • For 7 days
  • Water Temperature
  • Weather Map
  • Weather Widgets
  • user-avatar
    Login

    Hourly Weather Malanje

    Today, 15 October, Tuesday

    Time Temperature Precipitation Wind Pressure Humidity
    00:00 +18°C° 0.5 mm 0 mps 665 mmHg 95%
    01:00 +18°C° 0.5 mm 0 mps 665 mmHg 97%
    02:00 +18°C° 0.8 mm 0 mps 664 mmHg 97%
    03:00 +18°C° 0.8 mm 0 mps 664 mmHg 97%
    04:00 +18°C° 0.8 mm 0 mps 664 mmHg 97%
    05:00 +18°C° 1 mm 0 mps 665 mmHg 97%
    06:00 +18°C° 1 mm 0 mps 666 mmHg 96%
    07:00 +18°C° 1 mm 0 mps 666 mmHg 96%
    08:00 +21°C° 0.4 mm 1 mps 666 mmHg 94%
    09:00 +22°C° 0.4 mm 1 mps 666 mmHg 92%
    10:00 +22°C° 0.4 mm 1 mps 667 mmHg 90%
    11:00 +24°C° 0.6 mm 1 mps 666 mmHg 85%
    12:00 +25°C° 0.6 mm 1 mps 666 mmHg 79%
    13:00 +26°C° 0.6 mm 1 mps 665 mmHg 74%
    14:00 +26°C° 0.3 mm 1 mps 665 mmHg 74%
    15:00 +26°C° 0.3 mm 1 mps 664 mmHg 73%
    16:00 +26°C° 0.3 mm 1 mps 664 mmHg 72%
    17:00 +25°C° 0.9 mm 1 mps 664 mmHg 78%
    18:00 +23°C° 0.9 mm 1 mps 664 mmHg 84%
    19:00 +20°C° 0.9 mm 0 mps 664 mmHg 90%
    20:00 +20°C° 0 mm 0 mps 665 mmHg 91%
    21:00 +20°C° 0 mm 0 mps 665 mmHg 92%
    22:00 +19°C° 0 mm 0 mps 665 mmHg 93%
    23:00 +19°C° 0.1 mm 0 mps 665 mmHg 94%

    Tomorrow, 16 October, Wednesday

    Time Temperature Precipitation Wind Pressure Humidity
    00:00 +19°C° 0.1 mm 0 mps 665 mmHg 94%
    01:00 +19°C° 0.1 mm 0 mps 664 mmHg 95%
    02:00 +21°C° 0 mm 1 mps 664 mmHg 95%
    03:00 +21°C° 0 mm 1 mps 664 mmHg 95%
    04:00 +20°C° 0 mm 1 mps 663 mmHg 95%
    05:00 +19°C° 0 mm 0 mps 664 mmHg 93%
    06:00 +20°C° 0 mm 0 mps 665 mmHg 91%
    07:00 +20°C° 0 mm 0 mps 665 mmHg 89%
    08:00 +22°C° 0 mm 0 mps 665 mmHg 82%
    09:00 +23°C° 0 mm 0 mps 665 mmHg 76%
    10:00 +25°C° 0 mm 0 mps 666 mmHg 70%
    11:00 +29°C° 0 mm 1 mps 665 mmHg 63%
    12:00 +30°C° 0 mm 1 mps 665 mmHg 57%
    13:00 +32°C° 0 mm 1 mps 665 mmHg 50%
    14:00 +31°C° 0.7 mm 1 mps 664 mmHg 55%
    15:00 +30°C° 0.7 mm 2 mps 664 mmHg 60%
    16:00 +28°C° 0.7 mm 2 mps 663 mmHg 64%
    17:00 +26°C° 3.6 mm 1 mps 663 mmHg 71%
    18:00 +24°C° 3.6 mm 1 mps 663 mmHg 79%
    19:00 +21°C° 3.6 mm 1 mps 663 mmHg 86%
    20:00 +21°C° 0.3 mm 1 mps 664 mmHg 88%
    21:00 +19°C° 0.3 mm 0 mps 664 mmHg 89%
    22:00 +19°C° 0.3 mm 0 mps 664 mmHg 91%
    23:00 +21°C° 0.6 mm 1 mps 664 mmHg 93%

    Day after tomorrow, 17 October, Thursday

    Time Temperature Precipitation Wind Pressure Humidity
    00:00 +21°C° 0.6 mm 1 mps 665 mmHg 95%
    01:00 +20°C° 0.6 mm 2 mps 665 mmHg 97%
    02:00 +20°C° 0.4 mm 2 mps 664 mmHg 96%
    03:00 +20°C° 0.4 mm 2 mps 664 mmHg 95%
    04:00 +20°C° 0.4 mm 3 mps 664 mmHg 95%
    05:00 +20°C° 0 mm 3 mps 665 mmHg 94%
    06:00 +21°C° 0 mm 2 mps 665 mmHg 92%
    07:00 +21°C° 0 mm 2 mps 666 mmHg 91%
    08:00 +23°C° 0 mm 2 mps 666 mmHg 86%
    09:00 +24°C° 0 mm 2 mps 666 mmHg 81%
    10:00 +25°C° 0 mm 2 mps 666 mmHg 75%
    11:00 +27°C° 0.2 mm 2 mps 666 mmHg 72%
    12:00 +28°C° 0.2 mm 1 mps 665 mmHg 68%
    13:00 +29°C° 0.2 mm 1 mps 665 mmHg 64%
    14:00 +28°C° 0.9 mm 1 mps 665 mmHg 69%
    15:00 +27°C° 0.9 mm 2 mps 664 mmHg 74%
    16:00 +25°C° 0.9 mm 2 mps 663 mmHg 80%
    17:00 +24°C° 0.8 mm 2 mps 664 mmHg 84%
    18:00 +23°C° 0.8 mm 2 mps 664 mmHg 87%
    19:00 +21°C° 0.8 mm 2 mps 664 mmHg 91%
    20:00 +21°C° 0 mm 2 mps 664 mmHg 92%
    21:00 +20°C° 0 mm 2 mps 665 mmHg 94%
    22:00 +20°C° 0 mm 2 mps 665 mmHg 95%
    23:00 +20°C° 0 mm 2 mps 665 mmHg 96%

    18 October, Friday

    Time Temperature Precipitation Wind Pressure Humidity
    00:00 +20°C° 0 mm 2 mps 664 mmHg 96%
    01:00 +20°C° 0 mm 2 mps 664 mmHg 96%
    02:00 +20°C° 0 mm 2 mps 664 mmHg 95%
    03:00 +20°C° 0 mm 2 mps 664 mmHg 94%
    04:00 +20°C° 0 mm 2 mps 664 mmHg 93%
    05:00 +20°C° 0 mm 2 mps 664 mmHg 92%
    06:00 +20°C° 0 mm 3 mps 665 mmHg 92%
    07:00 +20°C° 0 mm 3 mps 665 mmHg 91%
    08:00 +23°C° 0 mm 2 mps 665 mmHg 84%
    09:00 +25°C° 0 mm 2 mps 666 mmHg 76%
    10:00 +27°C° 0 mm 2 mps 666 mmHg 69%
    11:00 +28°C° 0 mm 2 mps 665 mmHg 62%
    12:00 +30°C° 0 mm 1 mps 665 mmHg 56%
    13:00 +31°C° 0 mm 1 mps 665 mmHg 50%
    14:00 +30°C° 0.2 mm 1 mps 664 mmHg 54%
    15:00 +29°C° 0.2 mm 2 mps 663 mmHg 58%
    16:00 +28°C° 0.2 mm 2 mps 663 mmHg 62%
    17:00 +26°C° 0.2 mm 2 mps 663 mmHg 71%
    18:00 +24°C° 0.2 mm 2 mps 663 mmHg 79%
    19:00 +21°C° 0.2 mm 2 mps 663 mmHg 87%
    20:00 +21°C° 0 mm 2 mps 664 mmHg 89%
    21:00 +20°C° 0 mm 3 mps 664 mmHg 91%
    22:00 +20°C° 0 mm 3 mps 664 mmHg 92%
    23:00 +20°C° 0 mm 3 mps 664 mmHg 92%

    19 October, Saturday

    Time Temperature Precipitation Wind Pressure Humidity
    00:00 +20°C° 0 mm 3 mps 664 mmHg 92%
    01:00 +20°C° 0 mm 3 mps 664 mmHg 91%
    02:00 +20°C° 0 mm 3 mps 664 mmHg 91%
    03:00 +19°C° 0 mm 3 mps 664 mmHg 90%
    04:00 +19°C° 0 mm 3 mps 664 mmHg 89%
    05:00 +19°C° 0 mm 3 mps 664 mmHg 89%
    06:00 +19°C° 0 mm 3 mps 664 mmHg 88%
    07:00 +19°C° 0 mm 3 mps 665 mmHg 88%
    08:00 +21°C° 0 mm 3 mps 665 mmHg 82%
    09:00 +24°C° 0 mm 3 mps 665 mmHg 75%
    10:00 +26°C° 0 mm 2 mps 666 mmHg 69%
    11:00 +27°C° 0 mm 2 mps 665 mmHg 63%
    12:00 +29°C° 0 mm 2 mps 665 mmHg 58%
    13:00 +30°C° 0 mm 2 mps 664 mmHg 52%
    14:00 +30°C° 0.1 mm 2 mps 664 mmHg 54%
    15:00 +29°C° 0.1 mm 2 mps 663 mmHg 55%
    16:00 +29°C° 0.1 mm 2 mps 663 mmHg 57%
    17:00 +27°C° 0 mm 2 mps 663 mmHg 66%
    18:00 +25°C° 0 mm 2 mps 663 mmHg 74%
    19:00 +23°C° 0 mm 2 mps 663 mmHg 83%
    20:00 +21°C° 0 mm 2 mps 663 mmHg 85%
    21:00 +21°C° 0 mm 2 mps 664 mmHg 86%
    22:00 +21°C° 0 mm 1 mps 664 mmHg 88%
    23:00 +21°C° 0 mm 1 mps 664 mmHg 89%

    20 October, Sunday

    Time Temperature Precipitation Wind Pressure Humidity
    00:00 +20°C° 0 mm 1 mps 664 mmHg 91%
    01:00 +20°C° 0 mm 1 mps 664 mmHg 92%
    02:00 +19°C° 0 mm 1 mps 664 mmHg 94%
    03:00 +19°C° 0 mm 1 mps 664 mmHg 95%
    04:00 +18°C° 0 mm 1 mps 663 mmHg 97%
    05:00 +19°C° 0 mm 1 mps 664 mmHg 94%
    06:00 +20°C° 0 mm 1 mps 664 mmHg 90%
    07:00 +21°C° 0 mm 1 mps 665 mmHg 87%
    08:00 +23°C° 0 mm 1 mps 665 mmHg 77%
    09:00 +26°C° 0 mm 1 mps 666 mmHg 67%
    10:00 +29°C° 0 mm 1 mps 667 mmHg 58%
    11:00 +30°C° 0 mm 1 mps 666 mmHg 55%
    12:00 +30°C° 0 mm 1 mps 665 mmHg 52%
    13:00 +31°C° 0 mm 1 mps 665 mmHg 49%
    14:00 +31°C° 0 mm 1 mps 664 mmHg 50%
    15:00 +30°C° 0 mm 1 mps 664 mmHg 52%
    16:00 +30°C° 0 mm 1 mps 663 mmHg 53%
    17:00 +28°C° 0.1 mm 1 mps 664 mmHg 61%
    18:00 +25°C° 0.1 mm 2 mps 664 mmHg 68%
    19:00 +23°C° 0.1 mm 2 mps 664 mmHg 76%
    20:00 +22°C° 0.8 mm 1 mps 664 mmHg 82%
    21:00 +21°C° 0.8 mm 1 mps 665 mmHg 88%
    22:00 +21°C° 0.8 mm 1 mps 665 mmHg 93%
    23:00 +20°C° 0.5 mm 1 mps 665 mmHg 94%
    Show more